Location: Akdamlar
(36.8729°N, 30.5187°E)
Time: 14:04:24
(UTC+00:00)

Cosmos 1072 Rocket - Pass Details

Date: 18 September 2020
Orbit: 949 x 1008 km, 82.9° (Epoch: 19 October)

Event Time Altitude Azimuth Distance (km) Brightness Sun altitude
Rises 16:59:51 0° 174° (S) 3,632 7.3 -12.6°
Reaches altitude 10° 17:02:21 10° 171° (S) 2,697 6.6 -13.1°
Maximum altitude 17:08:26 61° 92° (E) 1,100 4.5 -14.3°
Drops below altitude 10° 17:14:37 10° 14° (NNE) 2,754 6.9 -15.5°
Sets 17:17:11 0° 11° (N) 3,714 7.6 -16.0°
